Location: Recife
(8.0585°S, 34.8848°W)
Time: 11:35:53
(UTC-03:00)

Vanguard 2 Rocket - Pass Details

Date: 23 April 2026
Orbit: 553 x 3286 km, 32.9° (Epoch: 7 May)

Event Time Altitude Azimuth Distance (km) Brightness Sun altitude
Rises 07:27:21 0° 225° (SW) 4,411 9.9 29.1°
Reaches altitude 10° 07:31:05 10° 208° (SSW) 3,861 9.8 30.0°
Maximum altitude 07:38:36 20° 163° (SSE) 3,848 10.2 31.7°
Drops below altitude 10° 07:48:58 10° 121° (ESE) 5,514 11.5 34.1°
Sets 07:56:01 0° 107° (ESE) 6,940 12.0 35.8°
